Location: Custodinha
(19.9484°S, 44.0071°W)
Time: 18:40:34
(UTC+00:00)

Daily predictions for brighter satellites

Satellite Brightness Start Highest point End
(mag) Time Altitude Azimuth Time Altitude Azimuth Time Altitude Azimuth
Cosmos 2034 Rocket 4.0 21:38:19 10° S 21:44:39 84° E 21:50:50 10° N
CZ-2C R/B 4.4 21:40:23 10° NE 21:44:48 39° ESE 21:49:15 10° S
Cosmos 1980 Rocket 3.5 21:42:29 10° SSE 21:46:48 22° ESE 21:51:05 10° ENE
CZ-3 Stage 3 3.3 21:48:28 10° WNW 21:50:43 21° NNW 21:55:28 10° NE
Envisat 4.4 21:46:27 10° S 21:51:19 45° WSW 21:56:09 10° NNW
GPS 2-14 Rocket1 3.7 21:50:11 10° W 21:53:55 36° NNW 21:57:33 10° NE
DEBRIS 4.2 21:58:55 10° W 22:00:51 24° NW 22:04:10 10° NNE
Cosmos 1500 3.1 21:59:05 10° S 22:02:53 68° E 22:06:39 10° NNE
Cosmos 1939 Rocket 2.9 22:00:29 10° SSE 22:04:30 58° E 22:08:31 10° N
Okean-O 4.0 22:01:24 10° S 22:05:38 44° WSW 22:09:51 10° NNW
COSMOS 2455 3.7 22:00:55 10° SSW 22:06:46 54° WNW 22:12:34 10° N
Cosmos 1634 Rocket 4.2 22:01:59 10° S 22:08:04 50° E 22:14:07 10° NNE
CZ-2D R/B 3.2 22:06:44 10° SSE 22:10:36 68° E 22:14:28 10° N
Cosmos 1607 4.0 22:08:47 10° NNW 22:15:11 83° ENE 22:21:38 10° SSE
DNEPR-1 R/B 3.6 22:11:04 10° N 22:15:31 53° ENE 22:19:34 10° SE
Okean 1 4.1 22:12:26 10° NNE 22:15:54 30° E 22:19:24 10° SSE
CZ-4 R/B 2.2 22:11:56 10° S 22:16:06 58° WSW 22:20:13 10° NNW
Cosmos 1733 Rocket 3.0 22:13:02 10° S 22:17:32 78° E 22:21:58 10° N
Cosmos 405 3.7 22:14:35 10° NNE 22:17:46 31° E 22:20:58 10° SSE
Cosmos 2285 Rocket 4.2 22:12:17 10° N 22:18:25 49° E 22:24:36 10° SSE
Okean 1-7 3.4 22:15:30 10° NNE 22:19:39 43° E 22:23:51 10° SSE
Meteor 1-11 Rocket 3.7 22:15:07 10° S 22:21:01 85° E 22:26:43 10° N
CSL-04 Rocket 3.7 22:17:33 10° SSE 22:23:09 82° ENE 22:28:43 10° N
SL-16 R/B 4.1 22:21:49 10° SE 22:23:05 11° ESE 22:23:05 11° ESE
YAOGAN 1 3.0 22:19:14 10° S 22:23:34 67° WSW 22:27:51 10° NNW
Atlas Centaur 2 1.6 22:21:36 10° SW 22:25:05 43° SSE 22:26:37 27° ESE
Mugunghwa Rocket 4.0 22:20:45 10° WSW 22:27:17 71° SSE 22:31:16 24° E
SAR-Lupe-2 3.9 22:25:48 25° NE 22:27:28 43° ESE 22:30:55 10° S
Intercosmos 24 3.8 22:25:09 10° S 22:28:52 74° W 22:32:27 10° N
Delta 202 4.3 22:24:27 10° W 22:29:27 43° NNW 22:32:53 22° NE
Cosmos 405 Rocket 4.0 22:26:12 10° SSE 22:29:01 24° ESE 22:29:01 24° ESE
SL-24 R/B 4.4 22:26:32 10° NNE 22:31:51 70° ESE 22:36:30 10° S
Ariane Rocket 3.4 22:30:09 10° SSE 22:34:56 39° E 22:39:39 10° N
Cosmos 2278 3.7 22:29:34 10° SSW 22:35:20 86° WNW 22:41:02 10° NNE
Cosmos 2344 4.2 22:24:00 10° SSW 22:35:34 83° WNW 22:43:57 10° NNE
Cosmos 1666 2.5 22:33:08 10° S 22:36:58 72° E 22:39:21 22° NNE
Cosmos 1703 Rocket 3.6 22:33:06 10° N 22:37:34 86° W 22:42:05 10° S
Centaur D-1AR AC-36 3.8 22:33:48 10° NNW 22:38:05 32° NE 22:42:28 24° E
H-2A R/B 1.7 22:36:40 10° SW 22:40:09 28° S 22:40:14 28° SSE
SJ-11-01 4.4 22:36:44 10° SSE 22:41:20 49° E 22:45:51 10° N
Sakura Rocket 3.5 22:35:25 10° WNW 22:42:10 81° NNE 22:44:35 32° ESE
GPS 2-05 Rocket1 3.3 22:40:12 10° WSW 22:41:41 35° WSW 22:41:41 35° WSW
CZ-2C R/B 2.5 22:38:07 12° NNE 22:42:54 72° ESE 22:48:06 10° S
Cosmos 1461 3.8 22:39:55 10° S 22:43:01 29° SE 22:43:01 29° SE
SEDSat Delta rocket 2.9 22:40:54 10° NW 22:44:55 58° NNE 22:45:39 50° ENE
CCE 1 Rocket 4.3 22:39:28 10° NW 22:46:15 46° NNE 22:47:21 39° ENE
Meteor 1-19 Rocket 4.0 22:47:41 10° N 22:53:05 65° E 22:58:30 10° SSE
Cosmos 724 4.4 22:47:48 10° N 22:53:30 49° ENE 22:59:19 10° SE
Abrixas rocket 3.9 22:51:34 10° WNW 22:54:11 28° SW 22:55:15 22° S
Cosmos 44 3.3 22:51:59 10° NNW 22:56:50 62° ENE 23:01:58 10° SSE
IUS-9 SRM-1 4.0 22:31:37 10° WNW 22:57:30 61° NNE 22:59:38 42° ENE
Centaur AC-69 3.8 22:55:26 10° W 22:56:43 25° WNW 22:56:43 25° WNW
IRS-1A Rocket 4.2 22:52:33 10° SSE 22:58:13 64° ENE 23:03:42 10° N
SL-4 R/B 1.9 22:54:53 10° NW 22:59:00 79° SW 22:59:29 66° SSE
Cosmos 2322 Rocket 3.8 22:56:50 10° SSE 22:59:30 19° SE 22:59:30 19° SE
MOS 1 Rocket 3.4 23:00:49 32° N 23:03:13 84° WNW 23:08:29 10° SSW
Cosmos 1833 4.0 22:58:44 10° NNW 23:04:23 82° ENE 23:10:03 10° SSE
GPS 2-17 Rocket1 2.9 23:04:41 10° W 23:08:47 76° WSW 23:08:47 76° WSW
RESURS DK-1 2.9 23:06:46 10° SSW 23:09:58 52° S 23:09:58 52° S
H-2A R/B 1.9 23:07:55 10° SSE 23:13:01 75° E 23:13:01 75° E
Cosmos 1908 Rocket 4.0 23:09:58 10° SSW 23:14:16 58° W 23:15:01 50° NW
H-II Stage 2 2.8 23:14:05 10° W 23:16:45 51° S 23:17:17 48° SSE
Centaur AC-125 3.2 23:12:58 10° WSW 23:17:03 45° WSW 23:17:03 45° WSW
Stardust Del rocket 4.0 23:15:56 10° W 23:21:53 61° SW 23:21:53 61° SW
Cosmos 1980 Rocket 3.8 23:25:41 10° SW 23:30:40 32° WNW 23:34:02 18° NNW
GP-B 4.2 23:29:19 10° SSW 23:33:14 43° WSW 23:33:14 43° WSW
Cosmos 773 Rocket 4.4 23:29:16 10° SSW 23:34:18 60° W 23:34:18 60° W
ARGOS 4.2 23:49:30 10° S 23:53:32 41° SW 23:53:32 41° SW
